TimeCDT,TemperatureF,Dew PointF,Humidity,Sea Level PressureIn,VisibilityMPH,Wind Direction,Wind SpeedMPH,Gust SpeedMPH,PrecipitationIn,Events,Conditions,WindDirDegrees,DateUTC
12:51 AM,73.0,55.0,53,29.89,10.0,SSE,10.4,-,N/A,,Clear,150,2011-10-06 05:51:00
1:51 AM,73.0,57.0,57,29.89,10.0,SSE,9.2,-,N/A,,Clear,160,2011-10-06 06:51:00
2:51 AM,72.0,57.9,61,29.88,10.0,SSE,9.2,-,N/A,,Clear,150,2011-10-06 07:51:00
3:51 AM,71.1,59.0,66,29.87,10.0,SSE,9.2,-,N/A,,Clear,150,2011-10-06 08:51:00
4:51 AM,70.0,60.1,71,29.87,10.0,SSE,10.4,-,N/A,,Clear,160,2011-10-06 09:51:00
5:51 AM,69.1,59.0,70,29.87,10.0,SSE,10.4,-,N/A,,Clear,150,2011-10-06 10:51:00
6:51 AM,69.1,59.0,70,29.88,10.0,SSE,11.5,-,N/A,,Clear,160,2011-10-06 11:51:00
7:37 AM,68.0,59.0,73,29.96,10.0,SSE,10.4,-,N/A,,Mostly Cloudy,150,2011-10-06 12:37:00
7:51 AM,69.1,60.1,73,29.90,10.0,SSE,15.0,20.7,N/A,,Overcast,150,2011-10-06 12:51:00
8:51 AM,70.0,61.0,73,29.92,10.0,SSE,11.5,-,N/A,,Overcast,160,2011-10-06 13:51:00
9:51 AM,73.9,61.0,64,29.92,10.0,South,9.2,19.6,N/A,,Overcast,170,2011-10-06 14:51:00
10:48 AM,75.2,60.8,61,29.98,10.0,South,15.0,26.5,N/A,,Mostly Cloudy,180,2011-10-06 15:48:00
10:51 AM,75.9,60.1,58,29.93,10.0,South,15.0,21.9,N/A,,Mostly Cloudy,180,2011-10-06 15:51:00
11:51 AM,81.0,61.0,50,29.90,10.0,South,17.3,25.3,N/A,,Partly Cloudy,170,2011-10-06 16:51:00
12:51 PM,84.2,60.8,45,29.93,10.0,South,19.6,28.8,N/A,,Partly Cloudy,190,2011-10-06 17:51:00
1:51 PM,86.0,59.0,40,29.83,10.0,SE,19.6,27.6,N/A,,Clear,140,2011-10-06 18:51:00
2:51 PM,89.1,57.9,35,29.79,10.0,SSE,19.6,26.5,N/A,,Clear,150,2011-10-06 19:51:00
3:51 PM,90.0,57.9,34,29.76,10.0,SSE,18.4,28.8,N/A,,Clear,150,2011-10-06 20:51:00
4:51 PM,91.0,57.0,32,29.75,10.0,SSE,21.9,27.6,N/A,,Clear,160,2011-10-06 21:51:00
5:51 PM,90.0,55.9,31,29.74,10.0,SSE,24.2,31.1,N/A,,Clear,150,2011-10-06 22:51:00
6:51 PM,87.1,55.9,35,29.75,10.0,SSE,18.4,27.6,N/A,,Clear,150,2011-10-06 23:51:00
7:51 PM,84.9,55.0,36,29.77,10.0,SSE,16.1,25.3,N/A,,Clear,160,2011-10-07 00:51:00
8:51 PM,82.9,54.0,37,29.79,10.0,SE,11.5,-,N/A,,Clear,130,2011-10-07 01:51:00
9:51 PM,82.0,55.9,41,29.82,10.0,SSE,15.0,23.0,N/A,,Clear,160,2011-10-07 02:51:00
10:51 PM,81.0,57.9,45,29.83,10.0,SSE,11.5,24.2,N/A,,Clear,150,2011-10-07 03:51:00
11:51 PM,80.1,59.0,48,29.83,10.0,SSE,10.4,-,N/A,,Clear,160,2011-10-07 04:51:00